RH
49 52 55 56 60 65 66 66 63 67 60 45 42 43 42 44 48 51 53 52 53 55
55 58 59 61 62 74 76 65 61 56 64 63 54 47 48 53 54 52 54 52 53 55
61 62 64 65 73 69 71 76 67 53 57 56 52 48 57 59 57 55 54 49 45 46
65 66 69 73 72 78 80 86 64 56 59 63 58 55 60 58 56 54 50 52 51 51
69 71 72 78 76 80 85 81 70 64 62 63 65 61 62 59 62 61 58 56 57 54
71 74 77 77 84 78 78 75 72 63 62 73 72 68 68 65 68 66 61 57 53 49
73 76 81 81 82 75 83 84 72 61 70 80 71 68 73 67 71 68 62 54 52 42
73 80 83 79 78 86 84 79 65 77 78 64 74 78 71 69 76 71 59 49 43 39
77 84 84 81 91 91 82 76 83 74 78 80 78 75 75 74 74 65 53 43 37 38
85 88 88 90 94 87 81 84 79 85 83 77 79 82 72 73 66 56 52 50 42 41
89 92 93 95 90 86 86 84 84 80 78 78 76 73 69 59 57 55 54 56 45 44
92 93 92 91 88 90 86 82 78 76 75 74 71 63 57 54 55 59 60 59 46 47
94 94 95 93 88 85 82 76 71 71 69 58 55 53 51 50 55 60 64 55 49 51
95 92 89 88 84 77 70 64 59 52 49 50 46 49 49 53 57 62 60 54 55 54